Radiation Dose measured at exhaust stack monitor of Fukushima Daiichi Nuclear Power Station
Date,Time,Unit 5 6 shared exhaust cylinders,Wind Direction,Wind Velocity(m/s)
2021/04/12,00:00,4.0,south-southwest,4.8
2021/04/12,00:10,4.1,south-southwest,4.6
2021/04/12,00:20,3.9,south-southwest,4.4
2021/04/12,00:30,4.0,south-southwest,4.3
2021/04/12,00:40,3.9,south-southwest,4.3
2021/04/12,00:50,3.9,south-southwest,3.9
2021/04/12,01:00,4.0,south-southwest,3.6
2021/04/12,01:10,4.0,south-southwest,3.7
2021/04/12,01:20,4.0,southwest,4.0
2021/04/12,01:30,3.8,south-southwest,4.1
2021/04/12,01:40,3.8,south-southwest,4.4
2021/04/12,01:50,4.0,south-southwest,4.3
2021/04/12,02:00,3.9,south-southwest,4.2
2021/04/12,02:10,4.0,south-southwest,4.3
2021/04/12,02:20,3.9,south-southwest,3.9
2021/04/12,02:30,3.9,south-southwest,4.5
2021/04/12,02:40,3.9,south-southwest,4.1
2021/04/12,02:50,3.9,southwest,2.8
2021/04/12,03:00,4.1,west-southwest,2.6
2021/04/12,03:10,3.9,west-southwest,2.8
2021/04/12,03:20,4.0,west-southwest,3.5
2021/04/12,03:30,4.2,west-southwest,4.5
2021/04/12,03:40,4.0,west-southwest,5.1
2021/04/12,03:50,3.9,southwest,5.1
2021/04/12,04:00,3.9,southwest,5.0
2021/04/12,04:10,4.0,southwest,4.8
2021/04/12,04:20,3.8,southwest,3.7
2021/04/12,04:30,3.8,south-southwest,3.7
2021/04/12,04:40,4.0,south-southwest,3.6
2021/04/12,04:50,4.1,southwest,3.0
2021/04/12,05:00,3.8,southwest,2.8
2021/04/12,05:10,3.9,southwest,2.6
2021/04/12,05:20,3.9,south-southwest,2.0
2021/04/12,05:30,4.0,south,2.0
2021/04/12,05:40,4.0,south-southwest,1.5
2021/04/12,05:50,3.9,south-southwest,1.2
2021/04/12,06:00,3.9,-,CALM
2021/04/12,06:10,3.9,south-southeast,0.8
2021/04/12,06:20,3.9,south,0.6
2021/04/12,06:30,4.0,south,0.8
2021/04/12,06:40,3.9,south,0.9
2021/04/12,06:50,4.0,south-southeast,0.9
2021/04/12,07:00,3.9,southeast,0.6
2021/04/12,07:10,4.0,-,CALM
2021/04/12,07:20,4.0,-,CALM
2021/04/12,07:30,3.9,southeast,0.9
2021/04/12,07:40,3.9,northeast,0.6
2021/04/12,07:50,3.8,south,1.5
2021/04/12,08:00,4.0,south,2.0
2021/04/12,08:10,3.9,south-southeast,2.3
2021/04/12,08:20,3.8,south-southeast,2.6
2021/04/12,08:30,4.1,southeast,3.0
2021/04/12,08:40,4.0,southeast,2.5
2021/04/12,08:50,4.0,southeast,3.4
2021/04/12,09:00,4.0,southeast,4.0
2021/04/12,09:10,4.0,southeast,5.0
2021/04/12,09:20,3.9,southeast,6.4
2021/04/12,09:30,3.9,south-southeast,6.9
2021/04/12,09:40,4.0,south-southeast,10.8
2021/04/12,09:50,4.0,south-southeast,10.7
2021/04/12,10:00,3.9,south-southeast,10.2
2021/04/12,10:10,3.7,south-southeast,10.7
2021/04/12,10:20,3.8,south-southeast,11.0
2021/04/12,10:30,4.1,south-southeast,9.9
2021/04/12,10:40,3.9,south-southeast,10.5
2021/04/12,10:50,4.1,south-southeast,10.6
2021/04/12,11:00,3.8,south-southeast,10.8
2021/04/12,11:10,3.9,south-southeast,11.3
2021/04/12,11:20,3.8,south-southeast,11.0
2021/04/12,11:30,3.8,south-southeast,9.4
2021/04/12,11:40,4.0,south-southeast,11.6
2021/04/12,11:50,4.0,south-southeast,13.0
2021/04/12,12:00,4.0,south-southeast,10.0
2021/04/12,12:10,3.9,south-southeast,14.4
2021/04/12,12:20,3.9,south-southeast,12.7
2021/04/12,12:30,4.0,south-southeast,11.4
2021/04/12,12:40,4.0,south-southeast,11.0
2021/04/12,12:50,4.0,south-southeast,13.8
2021/04/12,13:00,3.9,south-southeast,13.8
2021/04/12,13:10,3.9,south-southeast,10.3
2021/04/12,13:20,4.0,south-southeast,14.2
2021/04/12,13:30,3.8,south-southeast,13.3
2021/04/12,13:40,3.8,south-southeast,12.4
2021/04/12,13:50,4.0,south-southeast,13.0
2021/04/12,14:00,3.8,south-southeast,13.8
2021/04/12,14:10,3.8,south-southeast,13.8
2021/04/12,14:20,4.0,south-southeast,11.6
2021/04/12,14:30,4.1,south-southeast,13.5
2021/04/12,14:40,3.9,south-southeast,13.0
2021/04/12,14:50,3.9,south-southeast,12.4
2021/04/12,15:00,3.8,south-southeast,13.9
2021/04/12,15:10,4.0,south,14.9
2021/04/12,15:20,4.0,south-southeast,13.0
2021/04/12,15:30,4.0,south-southeast,13.8
2021/04/12,15:40,4.0,south,10.8
2021/04/12,15:50,3.9,south-southeast,9.6
2021/04/12,16:00,4.0,south-southeast,11.3
2021/04/12,16:10,4.1,south-southeast,10.9
2021/04/12,16:20,3.9,south,11.3
2021/04/12,16:30,3.9,south,10.6
2021/04/12,16:40,4.0,south-southeast,9.8
2021/04/12,16:50,3.8,south-southeast,10.9
2021/04/12,17:00,4.0,south,9.5
2021/04/12,17:10,4.1,south-southeast,9.4
2021/04/12,17:20,4.0,south-southeast,9.4
2021/04/12,17:30,3.9,south,9.3
2021/04/12,17:40,3.9,south,8.7
2021/04/12,17:50,4.0,south,9.4
2021/04/12,18:00,3.8,south,10.2
2021/04/12,18:10,3.9,south,8.8
2021/04/12,18:20,3.8,south,9.4
2021/04/12,18:30,3.8,south,9.1
2021/04/12,18:40,3.9,south,8.7
2021/04/12,18:50,4.0,south,9.1
2021/04/12,19:00,4.0,south,9.4
2021/04/12,19:10,4.0,south,8.7
2021/04/12,19:20,4.0,south,8.2
2021/04/12,19:30,4.0,south,8.9
2021/04/12,19:40,3.8,south,8.4
2021/04/12,19:50,4.1,south,8.6
2021/04/12,20:00,4.0,south,9.4
2021/04/12,20:10,4.1,south,8.4
2021/04/12,20:20,3.9,south,9.8
2021/04/12,20:30,4.0,south,10.2
2021/04/12,20:40,4.1,south,9.0
2021/04/12,20:50,3.9,south,11.4
2021/04/12,21:00,4.0,south,10.5
2021/04/12,21:10,4.0,south,10.0
2021/04/12,21:20,4.0,south,11.0
2021/04/12,21:30,3.7,south,8.7
2021/04/12,21:40,4.0,south,9.0
2021/04/12,21:50,4.0,south,10.0
2021/04/12,22:00,3.8,south,9.7
2021/04/12,22:10,3.9,south,9.6
2021/04/12,22:20,4.0,south,10.8
2021/04/12,22:30,4.0,south,11.4
2021/04/12,22:40,3.8,south,9.8
2021/04/12,22:50,3.9,south,11.0
2021/04/12,23:00,3.8,south,10.5
2021/04/12,23:10,3.9,south,9.8
2021/04/12,23:20,3.8,south,9.2
2021/04/12,23:30,3.9,south-southwest,9.1
2021/04/12,23:40,3.9,south,9.8
2021/04/12,23:50,3.9,south,9.4
